Hourly Weather Holuczkow

Today, 16 April, Friday

Time Temperature Precipitation Wind Pressure Humidity
00:00 -1°C° 0.3 mm 3 mps 734 mmHg 98%
01:00 0°C° 0 mm 3 mps 734 mmHg 97%
02:00 -1°C° 0.4 mm 3 mps 734 mmHg 97%
03:00 -2°C° 0.4 mm 4 mps 734 mmHg 97%
04:00 -2°C° 0.4 mm 4 mps 734 mmHg 97%
05:00 -1°C° 0.7 mm 4 mps 734 mmHg 97%
06:00 -1°C° 0.7 mm 4 mps 733 mmHg 97%
07:00 -1°C° 0 mm 5 mps 733 mmHg 97%
08:00 -1°C° 1 mm 5 mps 733 mmHg 97%
09:00 -1°C° 1 mm 5 mps 733 mmHg 97%
10:00 -1°C° 1 mm 5 mps 733 mmHg 98%
11:00 0°C° 1.3 mm 4 mps 733 mmHg 98%
12:00 0°C° 1.3 mm 4 mps 734 mmHg 98%
13:00 0°C° 1.3 mm 4 mps 734 mmHg 99%
14:00 0°C° 1.5 mm 4 mps 734 mmHg 99%
15:00 -1°C° 1.5 mm 4 mps 734 mmHg 99%
16:00 -1°C° 1.5 mm 4 mps 734 mmHg 99%
17:00 -1°C° 0.6 mm 4 mps 734 mmHg 98%
18:00 -1°C° 0.6 mm 4 mps 734 mmHg 98%
19:00 -1°C° 0.6 mm 4 mps 735 mmHg 98%
20:00 -1°C° 0.3 mm 4 mps 735 mmHg 98%
21:00 -1°C° 0.3 mm 4 mps 735 mmHg 98%
22:00 0°C° 0.3 mm 3 mps 735 mmHg 99%
23:00 0°C° 0.2 mm 3 mps 735 mmHg 99%

Tomorrow, 17 April, Saturday

Time Temperature Precipitation Wind Pressure Humidity
00:00 +1°C° 0.2 mm 3 mps 735 mmHg 99%
01:00 +1°C° 0.2 mm 3 mps 735 mmHg 99%
02:00 +2°C° 0.1 mm 2 mps 735 mmHg 99%
03:00 +2°C° 0.1 mm 2 mps 735 mmHg 99%
04:00 +2°C° 0.1 mm 2 mps 735 mmHg 99%
05:00 +2°C° 0 mm 2 mps 735 mmHg 99%
06:00 +2°C° 0 mm 2 mps 735 mmHg 99%
07:00 +2°C° 0 mm 2 mps 736 mmHg 99%
08:00 +4°C° 0 mm 1 mps 736 mmHg 99%
09:00 +4°C° 0 mm 1 mps 736 mmHg 98%
10:00 +4°C° 0 mm 1 mps 736 mmHg 98%
11:00 +5°C° 0 mm 1 mps 736 mmHg 95%
12:00 +6°C° 0 mm 1 mps 736 mmHg 92%
13:00 +7°C° 0 mm 1 mps 736 mmHg 89%
14:00 +7°C° 0 mm 1 mps 736 mmHg 91%
15:00 +7°C° 0 mm 1 mps 736 mmHg 93%
16:00 +7°C° 0 mm 1 mps 736 mmHg 94%
17:00 +6°C° 0 mm 1 mps 736 mmHg 96%
18:00 +5°C° 0 mm 1 mps 736 mmHg 97%
19:00 +5°C° 0 mm 1 mps 736 mmHg 98%
20:00 +5°C° 0 mm 1 mps 736 mmHg 98%
21:00 +5°C° 0 mm 1 mps 736 mmHg 98%
22:00 +4°C° 0 mm 1 mps 736 mmHg 98%
23:00 +4°C° 0 mm 1 mps 736 mmHg 98%

Day after tomorrow, 18 April, Sunday

Time Temperature Precipitation Wind Pressure Humidity
00:00 +4°C° 0 mm 1 mps 736 mmHg 98%
01:00 +4°C° 0 mm 1 mps 736 mmHg 99%
02:00 +4°C° 0 mm 1 mps 735 mmHg 99%
03:00 +3°C° 0 mm 1 mps 735 mmHg 98%
04:00 +3°C° 0 mm 1 mps 735 mmHg 98%
05:00 +4°C° 0 mm 1 mps 735 mmHg 97%
06:00 +4°C° 0 mm 1 mps 735 mmHg 96%
07:00 +4°C° 0 mm 2 mps 735 mmHg 95%
08:00 +5°C° 0 mm 2 mps 735 mmHg 91%
09:00 +5°C° 0 mm 3 mps 735 mmHg 87%
10:00 +7°C° 0 mm 3 mps 735 mmHg 83%
11:00 +7°C° 0 mm 3 mps 735 mmHg 82%
12:00 +8°C° 0 mm 3 mps 735 mmHg 81%
13:00 +9°C° 0 mm 3 mps 734 mmHg 80%
14:00 +9°C° 0 mm 3 mps 734 mmHg 82%
15:00 +9°C° 0 mm 3 mps 734 mmHg 83%
16:00 +9°C° 0 mm 3 mps 734 mmHg 84%
17:00 +8°C° 0 mm 2 mps 734 mmHg 86%
18:00 +7°C° 0 mm 2 mps 734 mmHg 88%
19:00 +7°C° 0 mm 1 mps 734 mmHg 89%
20:00 +7°C° 0 mm 1 mps 734 mmHg 90%
21:00 +6°C° 0 mm 1 mps 734 mmHg 91%
22:00 +6°C° 0 mm 1 mps 734 mmHg 91%
23:00 +5°C° 0 mm 1 mps 734 mmHg 92%

19 April, Monday

Time Temperature Precipitation Wind Pressure Humidity
00:00 +5°C° 0 mm 1 mps 734 mmHg 93%
01:00 +5°C° 0 mm 1 mps 733 mmHg 94%
02:00 +5°C° 0 mm 1 mps 733 mmHg 94%
03:00 +5°C° 0 mm 1 mps 733 mmHg 95%
04:00 +5°C° 0 mm 1 mps 733 mmHg 96%
05:00 +6°C° 0 mm 1 mps 733 mmHg 95%
06:00 +7°C° 0 mm 1 mps 733 mmHg 94%
07:00 +8°C° 0 mm 1 mps 733 mmHg 93%
08:00 +7°C° 0.1 mm 2 mps 732 mmHg 91%
09:00 +8°C° 0.1 mm 3 mps 732 mmHg 88%
10:00 +9°C° 0.1 mm 3 mps 732 mmHg 86%
11:00 +8°C° 0.2 mm 4 mps 732 mmHg 83%
12:00 +10°C° 0.2 mm 4 mps 732 mmHg 81%
13:00 +10°C° 0.2 mm 4 mps 731 mmHg 79%
14:00 +10°C° 0.2 mm 4 mps 731 mmHg 79%
15:00 +10°C° 0.2 mm 3 mps 731 mmHg 79%
16:00 +10°C° 0.2 mm 3 mps 730 mmHg 79%
17:00 +9°C° 0 mm 2 mps 730 mmHg 82%
18:00 +7°C° 0 mm 2 mps 730 mmHg 86%
19:00 +7°C° 0 mm 1 mps 730 mmHg 90%
20:00 +6°C° 0 mm 1 mps 730 mmHg 91%
21:00 +6°C° 0 mm 1 mps 730 mmHg 92%
22:00 +5°C° 0 mm 1 mps 730 mmHg 93%
23:00 +5°C° 0 mm 1 mps 730 mmHg 94%

20 April, Tuesday

Time Temperature Precipitation Wind Pressure Humidity
00:00 +4°C° 0 mm 1 mps 730 mmHg 95%
01:00 +3°C° 0 mm 0 mps 729 mmHg 95%
02:00 +4°C° 0 mm 1 mps 729 mmHg 95%
03:00 +5°C° 0 mm 1 mps 729 mmHg 95%
04:00 +5°C° 0 mm 1 mps 729 mmHg 95%
05:00 +5°C° 0.2 mm 1 mps 729 mmHg 94%
06:00 +6°C° 0.2 mm 1 mps 729 mmHg 94%
07:00 +6°C° 0.2 mm 1 mps 729 mmHg 93%
08:00 +6°C° 0.1 mm 2 mps 729 mmHg 89%
09:00 +7°C° 0.1 mm 2 mps 729 mmHg 85%
10:00 +7°C° 0.1 mm 3 mps 729 mmHg 81%
11:00 +7°C° 0.1 mm 3 mps 729 mmHg 81%
12:00 +8°C° 0.1 mm 3 mps 729 mmHg 81%
13:00 +7°C° 0.1 mm 4 mps 729 mmHg 82%
14:00 +7°C° 0.1 mm 4 mps 729 mmHg 82%
15:00 +7°C° 0.1 mm 4 mps 729 mmHg 83%
16:00 +7°C° 0.1 mm 4 mps 729 mmHg 83%
17:00 +6°C° 0 mm 4 mps 729 mmHg 86%
18:00 +5°C° 0 mm 3 mps 729 mmHg 90%
19:00 +4°C° 0 mm 3 mps 729 mmHg 93%
20:00 +3°C° 0 mm 3 mps 729 mmHg 93%
21:00 +4°C° 0 mm 2 mps 729 mmHg 93%
22:00 +3°C° 0 mm 2 mps 729 mmHg 93%
23:00 +3°C° 0 mm 2 mps 729 mmHg 93%

21 April, Wednesday

Time Temperature Precipitation Wind Pressure Humidity
00:00 +3°C° 0 mm 2 mps 729 mmHg 92%
01:00 +2°C° 0 mm 3 mps 729 mmHg 91%
02:00 +2°C° 0 mm 3 mps 729 mmHg 91%
03:00 +2°C° 0 mm 3 mps 729 mmHg 91%
04:00 +1°C° 0 mm 3 mps 730 mmHg 91%
05:00 +3°C° 0 mm 3 mps 730 mmHg 86%
06:00 +4°C° 0 mm 3 mps 730 mmHg 82%
07:00 +7°C° 0 mm 3 mps 730 mmHg 78%
08:00 +8°C° 0.1 mm 3 mps 730 mmHg 73%
09:00 +8°C° 0.1 mm 4 mps 730 mmHg 68%
10:00 +11°C° 0.1 mm 4 mps 731 mmHg 62%
11:00 +11°C° 0.2 mm 4 mps 731 mmHg 60%
12:00 +12°C° 0.2 mm 4 mps 731 mmHg 58%
13:00 +12°C° 0.2 mm 4 mps 731 mmHg 56%
14:00 +12°C° 0.2 mm 3 mps 731 mmHg 59%
15:00 +12°C° 0.2 mm 3 mps 731 mmHg 61%
16:00 +12°C° 0.2 mm 3 mps 731 mmHg 63%
17:00 +12°C° 0.3 mm 2 mps 731 mmHg 71%
18:00 +9°C° 0.3 mm 2 mps 731 mmHg 79%
19:00 +8°C° 0.3 mm 1 mps 732 mmHg 87%
20:00 +8°C° 0.1 mm 1 mps 732 mmHg 88%
21:00 +8°C° 0.1 mm 1 mps 732 mmHg 90%
22:00 +7°C° 0.1 mm 1 mps 732 mmHg 91%
23:00 +7°C° 0 mm 1 mps 733 mmHg 92%
Show more